Location: SE Lincoln, NE
(40.7805°N, 96.6275°W)
Time: 03:32:50
(UTC-05:00)

SWARM A - Pass Details

Date: 15 May 2021
Orbit: 427 x 431 km, 87.4° (Epoch: 23 June)

Event Time Altitude Azimuth Distance (km) Brightness Sun altitude
Rises 22:21:01 0° 356° (N) 2,412 8.8 -16.7°
Reaches altitude 10° 22:23:04 10° 354° (N) 1,538 7.8 -17.0°
Maximum altitude 22:26:23 70° 271° (W) 462 4.4 -17.4°
Enters shadow 22:27:43 33° 195° (SSW) 747 5.1 -17.6°
